Vertical_Velocity
0 -1 -0 -2 -2 -2 0 -4 -2 -0 -3 -1 -4 -2 -0 -0 -1 -1 2 1 -1 1 -2 -3 -0 -2 0 -1 -1 -9 4 -0 -1 9 -33 54 -10 31 -7 -14 10 -25 36 -8 -5
-1 -1 -1 -0 -2 -6 1 1 -4 0 0 -5 1 -1 1 -3 -3 -2 -2 -1 2 1 -1 -2 -1 -2 -1 0 -1 -4 -9 26 -11 -7 28 -35 7 -32 3 -3 -34 2 -4 -1 -6
-2 -2 3 -5 0 -2 -3 -1 -1 -2 2 -1 0 1 1 -0 -1 0 -2 -2 1 -0 -1 -1 5 2 3 -1 -5 -10 12 -35 -79 38 0 1 -5 42 22 23 27 7 0 -9 -5
-1 -0 1 -5 2 -4 -1 -0 -2 -4 1 -0 -1 -1 3 -1 13 -5 -0 -1 -1 2 -6 1 5 3 1 -0 -8 10 -2 -5 3 -1 -7 13 -7 -6 -56 -44 17 -5 4 4 -9
-0 -3 -4 -0 -5 2 -5 1 -2 -4 -0 1 -3 -3 2 -0 -2 -2 -1 2 -2 -2 -2 1 6 3 0 -6 -1 -6 24 -4 -2 -1 -1 9 18 2 22 19 -2 -11 -3 -4 -10
-3 -3 -2 -2 -3 1 -2 -2 0 -3 -0 -2 1 -1 2 -4 -1 -1 -1 3 -1 -7 -2 3 7 5 -3 -1 -0 11 12 -4 8 -7 -7 11 10 -4 2 -0 -0 -3 -0 -0 4
-2 0 -4 2 -2 2 -1 -5 -2 -2 -1 -5 0 -2 -1 -7 -1 -3 1 3 5 2 5 2 8 -4 3 4 3 -3 -0 1 14 -10 -1 -4 -0 -4 -7 -3 -1 4 2 -3 -1
0 -0 -3 3 -5 2 -0 -8 -1 -1 1 -2 -1 -1 -5 -1 -2 5 2 6 -2 4 4 -5 -5 -6 1 -2 2 0 8 3 -14 18 -7 8 6 1 -4 -2 5 -2 -2 -2 -1
-1 0 -1 -0 -1 -1 3 -12 -0 2 -1 -0 -3 1 3 -2 -2 5 3 3 -0 4 1 -1 0 2 4 -6 7 2 -2 8 -0 22 -15 4 1 -4 -3 7 -4 -1 1 -0 -3
-2 1 1 2 -6 0 2 -5 -1 2 3 -4 -3 -2 -4 2 1 1 -1 4 -3 2 3 4 4 4 6 14 -5 2 24 -1 4 -6 -1 19 -2 -4 -1 0 -7 0 -1 -1 1
-1 -2 2 -0 -2 4 -0 -8 1 0 -0 -6 3 4 9 -5 1 -3 -2 -4 2 -5 11 -13 11 -2 10 -24 -9 8 -1 1 19 -10 14 2 -3 -6 -3 1 -5 4 2 0 4
-1 -2 0 -0 -1 1 -0 -5 -7 -4 -2 -7 -3 1 -2 -4 -1 5 -7 1 -0 30 -27 -6 -28 -21 16 12 -0 7 8 11 -3 -7 4 -14 4 -0 -5 -3 -1 -2 -0 5 3
-1 2 -1 0 -1 4 -1 -4 -6 3 -6 -9 2 4 -0 -2 -11 26 -8 14 8 -36 -5 48 -8 -3 -3 -3 0 -0 5 -4 4 -6 -15 13 5 -0 -2 -6 -1 1 3 4 -1
1 1 -1 -2 3 3 -2 0 -4 -1 -1 -6 -4 -1 -7 -5 -5 -9 -6 12 -9 15 9 -14 3 -2 3 2 8 12 13 -10 -17 1 -4 -16 -0 43 -3 2 -2 2 1 -1 -0
3 2 0 -1 4 6 -16 1 -2 1 7 8 14 2 -1 -9 29 -15 -1 -5 10 13 -0 11 -0 2 5 18 -7 -20 20 -5 -4 -6 42 -3 10 15 -3 8 -6 -3 1 2 1
1 3 -0 -4 4 1 -7 1 6 3 -0 -7 2 -7 -2 -2 -9 15 -4 -6 -11 -3 10 -9 -9 -1 2 -7 -5 0 -0 -8 -7 6 6 -15 7 29 -6 13 3 -4 -2 1 1
-2 4 -3 5 4 2 -1 -1 9 1 -4 8 -0 4 0 -5 2 3 -5 -3 -2 -10 4 -2 7 -6 -3 -4 -1 -5 -0 4 12 13 -12 8 -2 -26 48 -18 8 -3 -0 -1 0
4 1 6 2 4 5 2 4 15 -16 2 -4 -5 -4 3 2 11 -10 10 4 0 26 6 2 8 -10 -10 4 12 -14 18 7 2 2 -7 -14 -6 15 3 -6 0 -6 4 -1 -0
5 1 -1 0 11 0 8 3 -25 11 11 -8 1 3 8 -4 14 -0 -4 0 3 -20 33 16 26 -13 -2 -6 -4 16 -14 2 5 -5 4 -10 -20 15 -11 -5 -1 -2 -0 1 0
1 6 -1 7 10 2 11 -11 2 -2 14 -1 -3 -3 3 -6 -5 -2 -9 7 -7 -9 -4 -3 19 2 -9 -2 -8 -8 20 4 -4 2 -1 -1 1 10 -1 -1 0 1 -1 -0 0
3 1 20 11 7 5 -7 -24 17 -7 3 -6 -3 2 3 -3 -8 -10 8 4 -8 -1 -7 6 -3 5 -1 -11 16 -7 -1 -9 3 6 3 0 4 -3 -9 -5 -1 4 3 1 1
9 -6 -2 2 8 -9 -5 -20 5 10 0 -7 -1 -1 -6 6 -7 5 2 25 -7 -1 -9 -1 3 1 -2 -4 -11 -6 15 5 3 2 -1 -0 -22 -9 -7 -7 -6 -3 1 -1 0
-1 9 5 14 -13 -2 1 2 5 10 -1 -4 -9 -2 -3 1 6 1 3 -6 -5 0 9 -9 -6 2 2 -3 -6 -6 -4 -6 9 -2 -2 3 -0 -2 -6 -3 -2 -2 0 -3 -3
5 7 8 1 -6 -5 -5 17 -7 2 9 5 5 1 -3 3 -2 4 4 -4 -0 1 -2 0 -3 -2 -8 12 7 -4 1 -1 -1 4 -8 -5 -4 17 1 -6 1 -1 -3 2 -1
6 -8 -10 -22 -13 8 11 -2 5 -3 3 -2 1 -4 -7 -1 4 1 7 -4 1 -1 -0 0 -5 5 2 -2 -2 -1 5 1 2 -6 11 -10 13 4 -3 0 5 2 -2 1 -3
4 -3 3 2 -9 0 8 -1 0 -0 -7 -1 6 -7 5 6 -15 6 2 0 -2 -0 2 -2 3 -2 -6 2 -1 -1 -1 -3 1 -5 3 4 -11 17 -10 -4 -2 -0 -1 0 2
9 14 5 13 -6 8 -4 7 -1 12 -11 26 -3 -4 3 4 -9 -10 -8 -1 5 0 5 -0 -1 2 2 -2 1 -3 -11 -4 1 0 2 1 -6 2 -1 -2 -1 0 -2 -3 -1
Height
3148 3146 3146 3145 3145 3143 3142 3140 3138 3133 3130 3128 3125 3124 3124 3123 3121 3119 3118 3118 3118 3119 3121 3123 3125 3127 3130 3133 3136 3139 3140 3134 3131 3132 3130 3129 3136 3140 3139 3139 3140 3127 3140 3139 3140
3144 3143 3142 3142 3141 3140 3138 3137 3134 3130 3126 3125 3124 3122 3122 3121 3119 3118 3117 3116 3117 3118 3120 3122 3124 3127 3130 3133 3134 3136 3136 3131 3130 3127 3128 3135 3138 3137 3139 3136 3138 3138 3140 3138 3139
3140 3140 3138 3138 3137 3136 3134 3134 3131 3127 3124 3123 3122 3121 3121 3120 3120 3118 3116 3116 3116 3118 3119 3123 3127 3128 3132 3133 3134 3135 3133 3133 3127 3125 3131 3136 3137 3139 3136 3136 3138 3140 3139 3141 3142
3136 3135 3134 3134 3133 3132 3131 3131 3127 3124 3121 3121 3121 3120 3120 3120 3123 3118 3117 3117 3117 3117 3119 3126 3129 3130 3132 3133 3133 3135 3135 3134 3130 3130 3135 3137 3138 3135 3136 3133 3136 3143 3142 3144 3143
3132 3131 3130 3130 3129 3128 3127 3127 3123 3121 3118 3120 3120 3120 3120 3121 3121 3119 3118 3118 3118 3119 3121 3125 3129 3131 3132 3132 3134 3135 3135 3134 3134 3134 3137 3138 3139 3140 3142 3142 3140 3140 3142 3146 3147
3127 3127 3126 3127 3125 3124 3123 3123 3120 3118 3117 3118 3119 3119 3120 3121 3122 3121 3120 3120 3120 3122 3123 3127 3130 3132 3131 3133 3134 3134 3135 3134 3136 3137 3139 3139 3140 3141 3143 3143 3141 3142 3145 3148 3150
3124 3123 3123 3123 3122 3120 3120 3119 3117 3115 3115 3117 3118 3119 3120 3121 3122 3122 3122 3122 3122 3123 3125 3127 3130 3130 3132 3132 3133 3133 3133 3133 3137 3138 3139 3140 3143 3143 3144 3145 3145 3148 3150 3150 3152
3119 3119 3119 3119 3118 3116 3116 3116 3114 3113 3114 3116 3118 3119 3121 3121 3122 3123 3124 3123 3123 3123 3123 3124 3126 3126 3129 3130 3131 3133 3134 3134 3137 3139 3140 3140 3141 3144 3146 3148 3149 3151 3152 3153 3153
3115 3115 3116 3115 3114 3113 3113 3113 3113 3111 3112 3115 3118 3119 3121 3122 3123 3123 3124 3124 3124 3124 3123 3125 3126 3127 3129 3130 3133 3133 3133 3133 3138 3138 3140 3141 3140 3143 3147 3149 3151 3153 3154 3155 3155
3110 3111 3112 3112 3111 3110 3110 3110 3111 3111 3112 3115 3118 3122 3121 3124 3124 3124 3125 3125 3125 3124 3125 3126 3127 3127 3129 3130 3131 3131 3130 3133 3134 3139 3139 3139 3141 3144 3147 3150 3152 3153 3155 3154 3154
3105 3107 3108 3109 3108 3106 3108 3110 3114 3113 3112 3114 3118 3118 3120 3122 3123 3125 3125 3126 3126 3126 3128 3128 3130 3128 3129 3131 3132 3130 3129 3129 3133 3138 3139 3140 3142 3144 3146 3149 3151 3153 3154 3154 3155
3100 3102 3103 3105 3104 3104 3106 3108 3109 3109 3111 3113 3115 3116 3117 3119 3122 3125 3125 3129 3128 3128 3130 3130 3131 3129 3130 3131 3131 3130 3129 3130 3136 3138 3139 3140 3141 3143 3144 3147 3149 3151 3152 3153 3153
3095 3097 3099 3101 3101 3102 3105 3107 3109 3109 3110 3114 3114 3115 3118 3120 3122 3125 3126 3127 3128 3128 3127 3126 3128 3128 3129 3130 3131 3130 3129 3132 3133 3136 3137 3135 3137 3139 3140 3142 3144 3147 3149 3150 3148
3089 3093 3095 3097 3101 3100 3105 3107 3108 3109 3112 3115 3113 3115 3116 3118 3120 3120 3122 3126 3127 3126 3125 3127 3127 3128 3128 3130 3130 3129 3131 3134 3134 3134 3131 3133 3128 3134 3138 3137 3139 3141 3143 3144 3144
3083 3088 3090 3092 3096 3099 3103 3106 3108 3109 3110 3110 3111 3111 3114 3117 3118 3117 3120 3124 3124 3126 3127 3127 3126 3128 3128 3128 3129 3131 3133 3132 3133 3131 3127 3129 3128 3128 3139 3136 3134 3136 3138 3139 3140
3078 3082 3085 3089 3093 3097 3102 3104 3108 3111 3103 3106 3107 3109 3113 3114 3116 3116 3119 3123 3125 3125 3125 3126 3125 3128 3128 3129 3130 3130 3132 3133 3133 3129 3126 3124 3126 3127 3130 3130 3130 3132 3133 3135 3136
3071 3076 3082 3086 3091 3094 3099 3103 3110 3104 3102 3102 3103 3107 3110 3112 3114 3115 3117 3120 3123 3125 3124 3125 3126 3126 3128 3131 3131 3132 3132 3127 3126 3124 3125 3123 3123 3123 3125 3125 3128 3129 3129 3130 3132
3063 3070 3075 3081 3086 3092 3095 3100 3103 3098 3098 3097 3100 3105 3108 3109 3112 3113 3115 3117 3120 3121 3120 3120 3124 3125 3126 3129 3129 3130 3130 3126 3124 3123 3120 3123 3123 3121 3122 3123 3126 3126 3127 3127 3128
3056 3062 3068 3077 3081 3088 3092 3094 3094 3094 3096 3096 3100 3102 3105 3107 3110 3111 3113 3114 3116 3118 3116 3116 3119 3122 3124 3126 3130 3127 3129 3129 3127 3128 3128 3124 3120 3118 3118 3121 3123 3124 3124 3123 3124
3050 3058 3066 3074 3078 3084 3086 3088 3091 3091 3093 3094 3097 3099 3102 3105 3108 3109 3111 3112 3114 3116 3116 3117 3118 3121 3121 3124 3125 3126 3127 3128 3128 3128 3125 3115 3115 3115 3117 3119 3120 3121 3121 3121 3122
3045 3053 3064 3068 3074 3077 3078 3083 3089 3089 3090 3093 3095 3097 3099 3102 3105 3107 3109 3111 3113 3115 3117 3119 3120 3121 3121 3121 3121 3123 3124 3126 3125 3124 3122 3118 3115 3115 3117 3118 3118 3119 3120 3120 3119
3038 3046 3053 3060 3067 3071 3075 3080 3086 3086 3085 3089 3092 3096 3098 3101 3103 3105 3107 3110 3110 3113 3115 3117 3117 3118 3119 3117 3118 3119 3120 3121 3123 3122 3123 3123 3119 3114 3115 3115 3115 3117 3118 3118 3118
3028 3042 3048 3056 3058 3065 3073 3078 3081 3083 3084 3087 3090 3094 3096 3099 3102 3104 3106 3105 3108 3110 3113 3114 3115 3116 3116 3118 3116 3116 3118 3119 3120 3119 3119 3121 3117 3113 3112 3112 3112 3113 3114 3114 3114
3027 3035 3041 3044 3056 3064 3069 3071 3077 3078 3082 3085 3088 3092 3094 3097 3099 3101 3103 3104 3106 3108 3109 3110 3111 3112 3112 3111 3111 3113 3114 3115 3116 3117 3116 3115 3114 3113 3110 3110 3110 3108 3110 3111 3110
3017 3023 3027 3032 3046 3059 3066 3069 3073 3075 3079 3082 3085 3088 3092 3094 3097 3099 3101 3100 3103 3105 3106 3108 3108 3109 3109 3109 3109 3110 3111 3111 3111 3112 3112 3111 3110 3110 3110 3109 3108 3106 3105 3106 3104
3008 3019 3028 3037 3048 3054 3060 3064 3068 3072 3076 3079 3082 3086 3089 3092 3094 3096 3097 3098 3099 3101 3103 3104 3105 3105 3105 3106 3106 3107 3107 3107 3107 3108 3108 3107 3107 3108 3105 3104 3102 3102 3099 3099 3098
3004 3017 3024 3031 3041 3049 3053 3060 3065 3070 3073 3076 3080 3083 3087 3089 3090 3092 3092 3095 3097 3098 3099 3100 3101 3102 3103 3102 3103 3103 3100 3102 3103 3104 3105 3104 3105 3102 3100 3099 3098 3097 3094 3094 3092